TELSTAR 12 (ORION 2)

导读 | 豆包AI

TELSTAR 12,又名ORION 2,是由美国主导打造的通信卫星,于1999年10月19日发射升空。它主要为大西洋区域提供通信广播服务,搭载多个转发器,可支持电视传输、语音通信和数据网络业务。作为一颗大容量通信卫星,它有效拓展了跨洋通信容量,服役期间为欧美地区媒体传播与政企通信提供了稳定支持,在卫星通信发展历程中留下了重要印记。

Basic Information
目录编号:
25949
目录名称:
TELSTAR 12 (ORION 2)
国际标识:
1999-059A
轨道中心:
EARTH
卫星名称:
TELSTAR 12 (ORION 2)
卫星全名:
--
卫星状态:
在轨 (已飞行9691 天)
发射日期:
1999-10-19 UTC
国别 :
美国 (US)
星等 :
--
Orbit Information
数据来源 国际轨道数据 AOE轨道数据
星历时间 2026-05-01T00:40:43+0800
19小时前
查看轨道信息
2026-05-01T06:00:00+0800
14小时前
查看轨道信息
半长轴 42668.512km 42668.599km
偏心率 0.0012075 0.001202
轨道倾角 8.568° 8.568°
近地点辐角 255.838° 255.821°
升交点赤经 63.488° 63.486°
平近点角 119.904° 198.547°
近地点 36238.852km 36239.174km
远地点 36341.898km 36341.75km
周期 1461.911分钟 1461.916分钟
每日圈数 0.985012 0.985009
Detailed Information
使用方式:
暂无
2D Orbit Map
3D Orbit Map
Orbit Altitude Analysis Chart
Orbit Inclination Analysis Chart
Orbit Comprehensive Analysis Chart
View Comprehensive Chart